Showing default

ICEYE-X49, 62384

Orbit data source: Space-Track

ICEYE-X49, 62384 is a payload satellite owned by ICEYE (FI) in LEO that was launched on Sat, 21 Dec 2024 UTC via an FALCON 9 launch vehicle from the Air Force Western Test Range (AFWTR). Payload-class satellites include a variety of spacecraft equipped with specific instruments for various scientific and technological missions. These include communications satellites like Starlink; space stations such as the ISS; scientific satellites like the Hubble; Earth observation satellites from companies like Planet Labs, Umbra, and HawkEye 360; GPS; miniature CubeSats for education and research; and military/defense satellites.

Loading next visibility...
Identifier
62384, 2024-247H
Orbit
LEO
Last TLE update
3 days ago
Origin
Manufacturer
ICEYE
Mission
Operational Commercial Radar Imaging
Bus & Motor
ICEYE, Unknown motor
Mass
80 kg wet, 80 kg dry
Launch date (UTC)
2024-12-21 (5 months ago)
Launch vehicle
FALCON 9
Launch site
Air Force Western Test Range (AFWTR)
Object type
Payload
Rocket body
Debris
Shape & HBR
Box + 1 Pan, 1.5 m
Radar Cross Section
0.776 m², Medium (>0.1 m² and < 1m²)

Expand to show TLE details & history

TLE from 3 days ago
0 ICEYE-X49
1 62384U 24247H   25126.98156360  .00007581  00000-0  50390-3 0  9997
2 62384  44.9971 356.8667 0003409 211.0880 148.9794 15.07717525 20763
Epoch: 2025-05-06T23:33Z
Definitive object data (Epoch: 2025-05-06T23:33:27.095Z)
Latitude
Longitude
138.43084°
Altitude
545.197 km
Speed
7.59 km/s
True Right ascension
23h 47m 28s
True Declination
0° 00' 00"
Sunlit
Object was in daylight at TLE epoch
Visualization TLE readout
Latitude
-16.3738°
Longitude
-38.46472°
Altitude
544.408 km
Speed
7.592 km/s
Apparent Right ascension
11h 25m 21s
Apparent Declination
-27° 52' 30"
Sunlit
Object is in full shadow
Visualization observer readout
Local Sidereal Time
22:38:24
Azimuth
317.565° NNW
Elevation
-74.539°
Doppler factor
1
Orbital elements
Apogee altitude
547.132 km
Perigee altitude
542.412 km
Semi-major axis
6,922.909 km
Eccentricity
0.0003409
Inclination
44.9971°
RAAN
356.8667°
Arg. of periapsis
211.088°
True anomaly
148.99952°
Mean anomaly
148.9794°
Eccentric anomaly
148.98946°
Mean motion
3.76799 °/min
BSTAR
0.0005039
Orbital period
95.54 mins
Loading maneuver chart data...
Loading SW <> Apogee altitude chart data...
Loading historical data...
Loading historical data...
Loading historical data...
Loading historical data...
Loading historical data...
Loading historical data...
Loading historical data...

ICEYE-X49 Visibility forecast

Observer location: undefined°, undefined°

Span
Click to sort rows by Start time (UTC) header in descending order
Start Az.
Max El. time (UTC)
Max El. Az.
Max El.
End time (UTC)
End Az.
6 mins2025-05-09 16:55:14.945Z198.589° SSW2025-05-09 16:58:14.945Z152.169° SSE23.023°2025-05-09 17:01:14.945Z93.386° ESE
6 mins2025-05-09 18:36:14.945Z255.309° W2025-05-09 18:38:14.945Z295.51° NW43.608°2025-05-09 18:42:14.945Z64.637° ENE
6 mins2025-05-09 20:16:14.945Z293.288° NW2025-05-09 20:19:14.945Z6.653° NNE32.601°2025-05-09 20:22:14.945Z64.22° ENE
6 mins2025-05-09 21:57:14.945Z304.795° NW2025-05-09 21:59:14.945Z353.042° N38.845°2025-05-09 22:03:14.945Z93.772° ESE
6 mins2025-05-09 23:37:14.945Z274.613° WNW2025-05-09 23:39:14.945Z231.875° WSW33.067°2025-05-09 23:43:14.945Z143.166° SSE
|